Location: Aytr�
(46.1357°N, 1.1145°W)
Time: 03:46:17
(UTC+00:00)

FENGYUN 1C DEB - Visible Passes

Search period start: 29 November 2021 00:00
Search period end: 09 December 2021 00:00
Orbit: 851 x 1031 km, 98.8° (Epoch: 28 November)

Date Brightness Start Highest point End Pass type
(mag) Time Alt. Az. Time Alt. Az. Time Alt. Az.
29 Nov ? 17:52:00 10° N 17:57:12 31° WNW 18:02:12 10° WSW visible
30 Nov ? 18:06:57 10° N 18:11:41 25° WNW 18:16:15 10° WSW visible
01 Dec ? 18:22:01 10° NNW 18:26:09 20° NW 18:30:09 10° W visible
02 Dec ? 16:53:00 10° NNE 16:59:00 80° WNW 17:04:42 10° SSW visible
02 Dec ? 18:37:13 10° NNW 18:40:34 16° NW 18:43:49 10° W visible
03 Dec ? 17:07:44 10° N 17:13:37 62° WNW 17:19:13 10° SSW visible
03 Dec ? 18:52:46 10° NNW 18:54:57 12° NW 18:57:06 10° WNW visible
04 Dec ? 17:22:32 10° N 17:28:12 48° WNW 17:33:38 10° SW visible
05 Dec ? 17:37:23 10° N 17:42:46 38° WNW 17:47:56 10° SW visible
06 Dec ? 17:52:17 10° N 17:57:17 30° WNW 18:02:06 10° WSW visible
07 Dec ? 18:07:15 10° N 18:11:46 24° WNW 18:16:07 10° WSW visible
08 Dec ? 18:22:20 10° NNW 18:26:13 19° NW 18:29:59 10° W visible
